Location: Peebles
(55.6412°N, 3.1714°W)
Time: 08:59:26
(UTC+00:00)

COSMOS 2251 DEB - Pass Details

Date: 07 December 2022
Orbit: 738 x 761 km, 74.0° (Epoch: 29 January)

Event Time Altitude Azimuth Distance (km) Brightness Sun altitude
Exits shadow 07:20:17 - 334° (NNW) 2,716 ? -8.5°
Reaches altitude 10° 07:22:59 10° 359° (N) 2,264 ? -8.1°
Maximum altitude 07:24:17 11° 14° (NNE) 2,206 ? -8.0°
Drops below altitude 10° 07:25:35 10° 28° (NNE) 2,266 ? -7.8°
Sets 07:30:06 0° 66° (ENE) 3,193 ? -7.3°
